ONEWEB-0334, 49200

Orbit data source: Space-Track

ONEWEB-0334, 49200 is a payload satellite owned by One Web (NAA) (UK) in LEO that was launched on Tue, 14 Sep 2021 UTC via a SOYUZ-2-1B launch vehicle from the Tyuratam Missile And Space Complex (TTMTR). Payload-class satellites include a variety of spacecraft equipped with specific instruments for various scientific and technological missions. These include communications satellites like Starlink; space stations such as the ISS; scientific satellites like the Hubble; Earth observation satellites from companies like Planet Labs, Umbra, and HawkEye 360; GPS; miniature CubeSats for education and research; and military/defense satellites.

Loading next visibility...
Identifier
49200, 2021-083Q
Orbit
LEO
Country
Flag of UKUK
Related business
Manufacturer
One Web
Mission
Operational Commercial Communications
Bus & Motor
ARROW, Unknown motor
Mass
148 kg wet, ~140 kg dry
Launch date (UTC)
2021-09-14 (5 years ago)
Launch vehicle
SOYUZ-2-1B
Launch site
Tyuratam Missile And Space Complex (TTMTR)
Object type
Payload
Rocket body
Debris
Shape & HBR
Trap Box + 2 Pan, 6.7 m
Radar Cross Section
3.464 m², Large (>1 m²)

Expand to show TLE details & history
Last TLE update: 2 days ago

TLE from 2 days ago
0 ONEWEB-0334
1 49200U 21083Q   26171.32188963  .00000101  00000-0  21420-3 0  9990
2 49200  87.9195 273.8205 0001571 129.9787 230.1485 13.21260711237201
Epoch: 2026-06-20T07:43Z
TLE epoch observation values (Epoch: 2026-06-20T07:43:31.264Z)
Latitude
0.00003°
Longitude
-110.59795°
Altitude
1,183.573 km
Speed
7.261 km/s
True Right ascension
18h 15m 16s
True Declination
0° 00' 00"
Sunlit
Object was in full shadow at epoch
Visualization orbit readout
Latitude
Unknown
Longitude
Unknown
Altitude
Unknown
Speed
Unknown
Apparent Right ascension
Unknown
Apparent Declination
Unknown
Sunlit
N/A
Visualization observer readout
Local Sidereal Time
21:27:35
Azimuth
Unknown
Elevation
Unknown
Doppler factor
Unknown
Orbital elements
Apogee altitude
1,178.199 km
Perigee altitude
1,175.825 km
Semi-major axis
7,555.149 km
Eccentricity
0.00016
Inclination
87.9195°
RAAN
273.8205°
Arg. of periapsis
129.9787°
True anomaly
230.13468°
Mean anomaly
230.1485°
Eccentric anomaly
230.14159°
Mean motion
3.30505 °/min
Orbital period
108.92 mins
BSTAR
0.0002142
Loading maneuver chart data...
Computing Atmospheric mass density...
Loading historical data...
Loading historical data...
Loading historical data...
Loading historical data...
Loading historical data...
Loading historical data...
Loading historical data...

Documentation

Showing up to 5 results
|